GW0175 Weather Reports


time (UTC)temp
C
wind
direction
speed
KPH
gust
KPH
rain 1hr
cm
rain 24hr
cm
rain mn
cm
humidity
%
barometer
mb
20260906165558 31 184 9.7 17.7 0.00 0.00 0.00 47 1014.2
20260906165053 31 183 8.0 17.7 0.00 0.00 0.00 47 1014.4
20260906164552 32 172 16.1 16.1 0.00 0.00 0.00 47 1014.4
20260906164048 31 170 3.2 9.7 0.00 0.00 0.00 49 1014.3
20260906163543 31 180 1.6 8.0 0.00 0.00 0.00 50 1014.7
20260906163039 31 191 4.8 9.7 0.00 0.00 0.00 49 1014.4
20260906162536 31 143 3.2 14.5 0.00 0.00 0.00 50 1014.6
20260906162031 31 154 4.8 14.5 0.00 0.00 0.00 51 1014.5
20260906161526 30 153 6.4 14.5 0.00 0.00 0.00 53 1014.2
20260906161025 30 169 6.4 8.0 0.00 0.00 0.00 53 1014.6
20260906160524 30 177 8.0 11.3 0.00 0.00 0.00 52 1014.5
20260906160023 29 198 0.0 8.0 0.00 0.00 0.00 55 1014.6
20260906155520 30 171 3.2 8.0 0.00 0.00 0.00 55 1014.3
20260906155017 29 192 1.6 8.0 0.00 0.00 0.00 54 1014.4
20260906154512 29 168 3.2 4.8 0.00 0.00 0.00 55 1014.4
20260906154011 28 160 9.7 12.9 0.00 0.00 0.00 57 1014.5
20260906153509 28 169 8.0 14.5 0.00 0.00 0.00 57 1014.5
20260906153005 28 187 9.7 9.7 0.00 0.00 0.00 57 1014.2
20260906152459 28 171 6.4 9.7 0.00 0.00 0.00 57 1014.5
20260906151958 28 125 3.2 8.0 0.00 0.00 0.00 59 1014.4
20260906151454 27 155 8.0 8.0 0.00 0.00 0.00 59 1014.6
20260906150950 27 177 8.0 11.3 0.00 0.00 0.00 59 1014.4
20260906150444 27 183 8.0 11.3 0.00 0.00 0.00 60 1014.6
20260906145943 27 123 3.2 6.4 0.00 0.00 0.00 60 1014.4
20260906145438 27 203 1.6 6.4 0.00 0.00 0.00 61 1014.5
20260906144932 27 180 8.0 11.3 0.00 0.00 0.00 61 1014.2
20260906144427 27 162 6.4 14.5 0.00 0.00 0.00 62 1014.2
20260906143923 27 182 6.4 12.9 0.00 0.00 0.00 62 1014.2
20260906143418 27 90 3.2 11.3 0.00 0.00 0.00 61 1014.3
20260906142914 27 182 6.4 8.0 0.00 0.00 0.00 61 1014.3
20260906142413 27 174 6.4 9.7 0.00 0.00 0.00 61 1014.1
20260906141908 27 180 6.4 12.9 0.00 0.00 0.00 62 1013.9
20260906141408 26 172 9.7 12.9 0.00 0.00 0.00 63 1014.2
20260906140902 26 195 8.0 11.3 0.00 0.00 0.00 62 1014.2
20260906140357 26 143 4.8 8.0 0.00 0.00 0.00 63 1013.9
20260906135854 26 170 4.8 8.0 0.00 0.00 0.00 64 1013.9
20260906135349 26 168 6.4 9.7 0.00 0.00 0.00 64 1013.7
20260906134844 26 169 0.0 4.8 0.00 0.00 0.00 63 1014.1
20260906134339 26 90 0.0 4.8 0.00 0.00 0.00 65 1013.6
20260906133835 26 127 3.2 4.8 0.00 0.00 0.00 65 1013.7
20260906133330 26 84 3.2 6.4 0.00 0.00 0.00 66 1013.7
20260906132826 25 172 0.0 4.8 0.00 0.00 0.00 66 1013.8
20260906132321 25 180 0.0 3.2 0.00 0.00 0.00 67 1013.4
20260906131816 25 145 1.6 3.2 0.00 0.00 0.00 68 1013.5
20260906131312 25 77 0.0 0.0 0.00 0.00 0.00 69 1013.3
20260906130808 24 90 0.0 1.6 0.00 0.00 0.00 69 1013.4
20260906130307 23 98 0.0 1.6 0.00 0.00 0.00 70 1013.6
20260906125805 23 96 0.0 3.2 0.00 0.00 0.00 69 1013.3
20260906125306 23 109 3.2 4.8 0.00 0.00 0.00 68 1013.3
20260906124758 23 74 0.0 3.2 0.00 0.00 0.00 67 1013.3
20260906124254 23 74 0.0 1.6 0.00 0.00 0.00 67 1013.5
20260906123753 23 71 0.0 0.0 0.00 0.00 0.00 66 1013.2
20260906123248 23 71 0.0 0.0 0.00 0.00 0.00 65 1013.3
20260906122748 23 74 0.0 1.6 0.00 0.00 0.00 65 1013.2
20260906122243 23 0 1.6 1.6 0.00 0.00 0.00 66 1013.3
20260906121740 24 106 0.0 0.0 0.00 0.00 0.00 66 1013.1
20260906121236 24 81 0.0 0.0 0.00 0.00 0.00 66 1013.3
20260906120731 24 0 1.6 4.8 0.00 0.00 0.00 65 1013.2
20260906120228 25 60 0.0 3.2 0.00 0.00 0.00 64 1013.2
20260906115723 25 174 0.0 3.2 0.00 0.00 0.00 64 1013.1
20260906115218 26 190 0.0 4.8 0.00 0.00 0.00 64 1012.7
20260906114717 25 175 3.2 3.2 0.00 0.00 0.00 63 1012.7
20260906114212 25 165 0.0 0.0 0.00 0.00 0.00 63 1012.9
20260906113708 26 165 0.0 1.6 0.00 0.00 0.00 62 1012.5
20260906113207 26 198 3.2 3.2 0.00 0.00 0.00 62 1012.5
20260906112707 26 229 3.2 3.2 0.00 0.00 0.00 61 1012.6
20260906112204 26 233 4.8 4.8 0.00 0.00 0.00 61 1012.4
20260906111703 26 345 0.0 1.6 0.00 0.00 0.00 61 1012.4
20260906111158 26 330 0.0 3.2 0.00 0.00 0.00 61 1012.4
20260906110653 25 249 1.6 3.2 0.00 0.00 0.00 62 1012.6
20260906110148 25 331 0.0 0.0 0.00 0.00 0.00 61 1012.4
20260906105642 25 331 0.0 3.2 0.00 0.00 0.00 61 1012.3
20260906105138 26 180 0.0 3.2 0.00 0.00 0.00 61 1012.3
20260906104638 25 83 0.0 1.6 0.00 0.00 0.00 61 1012.3
20260906104137 25 174 0.0 3.2 0.00 0.00 0.00 62 1012.2
20260906103635 25 180 0.0 0.0 0.00 0.00 0.00 62 1012.3
20260906103130 25 0 0.0 0.0 0.00 0.00 0.00 62 1012.1
20260906102626 25 345 0.0 0.0 0.00 0.00 0.00 62 1012.1
20260906102120 25 195 0.0 0.0 0.00 0.00 0.00 62 1012.2
20260906101615 25 0 0.0 0.0 0.00 0.00 0.00 61 1012.3
20260906101114 26 352 0.0 1.6 0.00 0.00 0.00 61 1012.2
20260906100610 26 90 0.0 3.2 0.00 0.00 0.00 59 1011.9
20260906100105 26 172 0.0 3.2 0.00 0.00 0.00 59 1012.3
20260906095604 26 180 0.0 3.2 0.00 0.00 0.00 58 1012.0
20260906095100 26 161 0.0 3.2 0.00 0.00 0.00 59 1012.2
20260906094559 26 190 0.0 4.8 0.00 0.00 0.00 59 1012.2
20260906094055 26 180 0.0 1.6 0.00 0.00 0.00 59 1012.3
20260906093550 26 180 0.0 3.2 0.00 0.00 0.00 59 1012.2
20260906093045 25 212 3.2 3.2 0.00 0.00 0.00 61 1012.3
20260906092540 25 337 0.0 0.0 0.00 0.00 0.00 62 1012.2
20260906092036 26 0 0.0 3.2 0.00 0.00 0.00 61 1012.2
20260906091531 26 66 0.0 1.6 0.00 0.00 0.00 58 1012.3
20260906091027 26 233 0.0 3.2 0.00 0.00 0.00 58 1012.1
20260906090522 26 257 0.0 3.2 0.00 0.00 0.00 58 1012.4
20260906090017 26 255 3.2 3.2 0.00 0.00 0.00 61 1012.3
20260906085516 25 188 0.0 1.6 0.00 0.00 0.00 63 1012.2
20260906085015 25 63 0.0 6.4 0.00 0.00 0.00 64 1012.3
20260906084510 25 52 4.8 8.0 0.00 0.00 0.00 65 1012.3
20260906084009 26 113 4.8 4.8 0.00 0.00 0.00 64 1012.2
20260906083505 25 194 0.0 0.0 0.00 0.00 0.00 63 1011.8
20260906083004 25 194 0.0 1.6 0.00 0.00 0.00 63 1012.0
20260906082459 25 0 0.0 4.8 0.00 0.00 0.00 65 1011.8
20260906081955 26 180 0.0 1.6 0.00 0.00 0.00 63 1012.0
20260906081450 26 210 3.2 3.2 0.00 0.00 0.00 62 1012.0
20260906080946 26 254 0.0 3.2 0.00 0.00 0.00 61 1012.0
20260906080442 26 203 0.0 3.2 0.00 0.00 0.00 59 1012.1
20260906075937 26 198 0.0 3.2 0.00 0.00 0.00 57 1012.2
20260906075431 27 254 0.0 3.2 0.00 0.00 0.00 55 1012.4
20260906074927 27 180 0.0 0.0 0.00 0.00 0.00 54 1012.6
20260906074421 27 203 0.0 3.2 0.00 0.00 0.00 52 1012.6
20260906073920 27 240 4.8 4.8 0.00 0.00 0.00 52 1012.4
20260906073415 27 352 0.0 0.0 0.00 0.00 0.00 52 1012.7
20260906072911 27 165 0.0 1.6 0.00 0.00 0.00 52 1012.7
20260906072406 27 270 0.0 3.2 0.00 0.00 0.00 52 1012.6
20260906071902 27 250 0.0 3.2 0.00 0.00 0.00 52 1012.5
20260906071357 27 239 3.2 4.8 0.00 0.00 0.00 52 1012.4
20260906070853 27 246 0.0 1.6 0.00 0.00 0.00 51 1012.6
20260906070349 27 160 0.0 3.2 0.00 0.00 0.00 52 1013.0
20260906065844 27 234 1.6 4.8 0.00 0.00 0.00 52 1013.0
20260906065339 27 229 0.0 3.2 0.00 0.00 0.00 52 1013.1
20260906064834 27 165 0.0 4.8 0.00 0.00 0.00 51 1013.0
20260906064330 27 200 1.6 4.8 0.00 0.00 0.00 51 1013.2
20260906063825 26 162 0.0 3.2 0.00 0.00 0.00 51 1013.4
20260906063320 26 196 0.0 3.2 0.00 0.00 0.00 51 1013.3
20260906062815 26 157 3.2 4.8 0.00 0.00 0.00 53 1013.3
20260906062315 25 225 4.8 4.8 0.00 0.00 0.00 55 1013.2
20260906061810 25 169 3.2 3.2 0.00 0.00 0.00 57 1013.3
20260906061307 25 151 1.6 4.8 0.00 0.00 0.00 57 1013.3
20260906060801 25 225 6.4 6.4 0.00 0.00 0.00 55 1013.2
20260906060259 25 195 0.0 4.8 0.00 0.00 0.00 55 1013.0
20260906055754 25 157 1.6 6.4 0.00 0.00 0.00 53 1013.1
20260906055249 25 180 3.2 6.4 0.00 0.00 0.00 52 1012.9
20260906054745 26 175 4.8 6.4 0.00 0.00 0.00 50 1012.5
20260906054240 26 15 0.0 1.6 0.00 0.00 0.00 50 1012.9
20260906053737 26 29 0.0 3.2 0.00 0.00 0.00 50 1013.0
20260906053232 26 0 0.0 4.8 0.00 0.00 0.00 50 1012.9
20260906052727 26 346 1.6 3.2 0.00 0.00 0.00 50 1012.6
20260906052223 26 10 3.2 3.2 0.00 0.00 0.00 50 1012.9
20260906051720 25 15 4.8 4.8 0.00 0.00 0.00 50 1012.7
20260906051219 26 6 4.8 4.8 0.00 0.00 0.00 50 1013.0
20260906050714 26 7 4.8 4.8 0.00 0.00 0.00 50 1012.9
20260906050210 26 3 4.8 6.4 0.00 0.00 0.00 49 1013.0
20260906045708 26 340 1.6 6.4 0.00 0.00 0.00 49 1013.1
20260906045203 26 343 4.8 8.0 0.00 0.00 0.00 50 1013.1
20260906044659 26 337 0.0 1.6 0.00 0.00 0.00 49 1013.1
20260906044154 26 342 0.0 0.0 0.00 0.00 0.00 50 1013.1
20260906043650 26 342 0.0 0.0 0.00 0.00 0.00 49 1013.0
20260906043145 26 342 1.6 3.2 0.00 0.00 0.00 48 1012.7
20260906042645 26 14 0.0 0.0 0.00 0.00 0.00 48 1013.1
20260906042139 27 10 4.8 4.8 0.00 0.00 0.00 48 1013.1
20260906041635 27 345 0.0 0.0 0.00 0.00 0.00 48 1012.9
20260906041130 27 0 0.0 1.6 0.00 0.00 0.00 47 1013.0
20260906040626 27 352 0.0 0.0 0.00 0.00 0.00 47 1013.1
20260906040121 27 331 1.6 1.6 0.00 0.00 0.00 48 1012.9
20260906035616 27 240 0.0 0.0 0.00 0.00 0.00 47 1012.9
20260906035112 27 240 0.0 0.0 0.00 0.00 0.00 47 1012.7
20260906034612 27 240 0.0 3.2 0.00 0.00 0.00 47 1012.6
20260906034107 28 200 0.0 3.2 0.00 0.00 0.00 46 1012.5
20260906033603 28 232 0.0 3.2 0.00 0.00 0.00 46 1012.7
20260906033057 28 246 0.0 0.0 0.00 0.00 0.00 46 1012.7
20260906032554 28 154 0.0 0.0 0.00 0.00 0.00 46 1012.6
20260906032053 28 154 0.0 0.0 0.00 0.00 0.00 47 1012.4
20260906031549 28 154 0.0 0.0 0.00 0.00 0.00 47 1012.4
20260906031045 28 154 0.0 0.0 0.00 0.00 0.00 46 1012.3
20260906030543 28 106 0.0 0.0 0.00 0.00 0.00 47 1012.3
20260906030043 28 81 0.0 0.0 0.00 0.00 0.00 47 1012.2
20260906025538 28 81 0.0 0.0 0.00 0.00 0.00 47 1011.9
20260906025036 28 29 1.6 3.2 0.00 0.00 0.00 47 1011.6
20260906024531 28 90 0.0 3.2 0.00 0.00 0.00 47 1011.9
20260906024025 28 8 0.0 1.6 0.00 0.00 0.00 47 1011.5
20260906023522 28 45 3.2 4.8 0.00 0.00 0.00 47 1011.2
20260906023016 28 58 4.8 4.8 0.00 0.00 0.00 47 1010.9
20260906022511 28 32 0.0 3.2 0.00 0.00 0.00 46 1011.0
20260906022007 28 12 1.6 3.2 0.00 0.00 0.00 46 1011.0
20260906021502 28 23 3.2 4.8 0.00 0.00 0.00 46 1010.9
20260906020956 28 53 3.2 4.8 0.00 0.00 0.00 46 1011.0
20260906020445 29 54 1.6 3.2 0.00 0.00 0.00 45 1011.0
20260906015944 29 63 0.0 1.6 0.00 0.00 0.00 45 1010.8
20260906015444 29 74 0.0 0.0 0.00 0.00 0.00 44 1010.9
20260906014944 30 82 0.0 3.2 0.00 0.00 0.00 44 1010.7
20260906014438 30 23 0.0 1.6 0.00 0.00 0.00 44 1010.4
20260906013934 30 342 3.2 6.4 0.00 0.00 0.00 43 1010.3
20260906013430 30 12 3.2 8.0 0.00 0.00 0.00 43 1010.7
20260906012926 30 3 8.0 8.0 0.00 0.00 0.00 43 1010.2
20260906012425 31 3 3.2 8.0 0.00 0.00 0.00 42 1010.6
20260906011924 31 15 4.8 4.8 0.00 0.00 0.00 42 1010.4
20260906011420 31 337 0.0 4.8 0.00 0.00 0.00 41 1010.4
20260906010916 31 0 0.0 3.2 0.00 0.00 0.00 40 1010.3
20260906010411 31 337 0.0 3.2 0.00 0.00 0.00 40 1010.2
20260906005907 31 8 1.6 8.0 0.00 0.00 0.00 40 1010.2
20260906005406 32 262 0.0 4.8 0.00 0.00 0.00 40 1010.2
20260906004904 31 338 3.2 4.8 0.00 0.00 0.00 40 1010.2
20260906004359 32 270 0.0 4.8 0.00 0.00 0.00 40 1010.2
20260906003855 32 350 3.2 6.4 0.00 0.00 0.00 40 1010.3
20260906003350 32 279 3.2 6.4 0.00 0.00 0.00 39 1010.2
20260906002846 33 342 0.0 4.8 0.00 0.00 0.00 38 1010.1
20260906002344 33 328 0.0 6.4 0.00 0.00 0.00 35 1010.1
20260906001840 33 298 4.8 6.4 0.00 0.00 0.00 35 1010.4
20260906001336 33 81 1.6 4.8 0.00 0.00 0.00 35 1010.1
20260906000831 33 35 0.0 4.8 0.00 0.00 0.00 35 1010.3
20260906000326 33 8 3.2 8.0 0.00 0.00 0.00 35 1010.3
20260905235825 33 307 6.4 12.9 0.00 0.00 0.00 35 1009.9
20260905235320 34 343 11.3 11.3 0.00 0.00 0.00 34 1010.1
20260905234815 34 355 0.0 4.8 0.00 0.00 0.00 34 1010.1
20260905234311 34 148 0.0 3.2 0.00 0.00 0.00 34 1009.9
20260905233805 35 342 3.2 6.4 0.00 0.00 0.00 33 1009.8
20260905233300 35 293 4.8 11.3 0.00 0.00 0.00 33 1009.9
20260905232759 35 220 3.2 8.0 0.00 0.00 0.00 32 1009.9
20260905232255 35 75 1.6 3.2 0.00 0.00 0.00 32 1009.9
20260905231751 35 0 0.0 3.2 0.00 0.00 0.00 32 1009.2
20260905231246 35 63 3.2 8.0 0.00 0.00 0.00 31 1009.6
20260905230742 35 312 0.0 9.7 0.00 0.00 0.00 31 1009.6
20260905230239 36 324 4.8 8.0 0.00 0.00 0.00 30 1009.7
20260905225734 36 334 0.0 9.7 0.00 0.00 0.00 30 1009.8
20260905225229 36 247 0.0 4.8 0.00 0.00 0.00 30 1009.5
20260905224728 36 186 0.0 8.0 0.00 0.00 0.00 31 1009.5
20260905224224 36 341 0.0 6.4 0.00 0.00 0.00 30 1009.8
20260905223720 37 73 0.0 4.8 0.00 0.00 0.00 30 1009.6
20260905223217 36 90 1.6 12.9 0.00 0.00 0.00 30 1009.8
20260905222712 36 294 4.8 4.8 0.00 0.00 0.00 28 1009.5
20260905222211 37 241 9.7 12.9 0.00 0.00 0.00 28 1009.7
20260905221707 37 90 0.0 1.6 0.00 0.00 0.00 28 1009.8
20260905221204 36 266 3.2 14.5 0.00 0.00 0.00 28 1009.6
20260905220659 37 255 0.0 9.7 0.00 0.00 0.00 27 1009.8
20260905220155 37 270 0.0 4.8 0.00 0.00 0.00 28 1009.8
20260905215654 37 251 3.2 6.4 0.00 0.00 0.00 28 1009.8
20260905215150 37 171 3.2 19.3 0.00 0.00 0.00 28 1009.9
20260905214646 37 99 4.8 8.0 0.00 0.00 0.00 27 1009.8
20260905214141 38 192 0.0 11.3 0.00 0.00 0.00 27 1010.1
20260905213637 37 232 3.2 12.9 0.00 0.00 0.00 28 1009.9
20260905213132 37 17 0.0 8.0 0.00 0.00 0.00 28 1010.0
20260905212627 37 230 0.0 24.1 0.00 0.00 0.00 28 1010.1
20260905212126 37 222 4.8 25.7 0.00 0.00 0.00 28 1010.4
20260905211621 37 318 16.1 24.1 0.00 0.00 0.00 28 1010.3
20260905211117 37 18 0.0 20.9 0.00 0.00 0.00 28 1010.6
20260905210613 37 82 4.8 24.1 0.00 0.00 0.00 27 1010.6
20260905210108 37 294 8.0 32.2 0.00 0.00 0.00 28 1010.6
20260905205607 37 256 6.4 25.7 0.00 0.00 0.00 29 1010.6
20260905205107 38 215 14.5 14.5 0.00 0.00 0.00 28 1010.8
20260905204606 38 297 3.2 11.3 0.00 0.00 0.00 28 1010.9
20260905204101 37 239 9.7 17.7 0.00 0.00 0.00 29 1010.6
20260905203556 38 264 3.2 11.3 0.00 0.00 0.00 28 1010.6
20260905203052 38 190 4.8 16.1 0.00 0.00 0.00 28 1010.7
20260905202547 37 196 4.8 17.7 0.00 0.00 0.00 29 1011.0
20260905202042 37 304 0.0 11.3 0.00 0.00 0.00 29 1010.9
20260905201538 37 315 0.0 29.0 0.00 0.00 0.00 30 1011.0
20260905201037 37 252 3.2 20.9 0.00 0.00 0.00 31 1010.9
20260905200533 37 251 6.4 9.7 0.00 0.00 0.00 27 1011.3
20260905200032 38 219 6.4 6.4 0.00 0.00 0.00 27 1011.2
20260905195526 36 167 4.8 11.3 0.00 0.00 0.00 29 1011.2
20260905195022 37 199 8.0 12.9 0.00 0.00 0.00 28 1011.4
20260905194521 37 170 12.9 12.9 0.00 0.00 0.00 28 1011.4
20260905194015 37 205 8.0 8.0 0.00 0.00 0.00 28 1011.8
20260905193510 37 270 0.0 9.7 0.00 0.00 0.00 30 1011.5
20260905193006 36 194 6.4 14.5 0.00 0.00 0.00 31 1011.3
20260905192501 37 124 3.2 6.4 0.00 0.00 0.00 30 1011.5
20260905191957 37 154 6.4 6.4 0.00 0.00 0.00 29 1011.5
20260905191455 37 105 0.0 12.9 0.00 0.00 0.00 30 1011.6
20260905190954 37 54 0.0 3.2 0.00 0.00 0.00 30 1011.6
20260905190452 36 29 1.6 9.7 0.00 0.00 0.00 31 1011.9
20260905185951 36 60 6.4 14.5 0.00 0.00 0.00 31 1012.1
20260905185447 37 68 6.4 8.0 0.00 0.00 0.00 31 1012.1
20260905184945 36 39 4.8 4.8 0.00 0.00 0.00 31 1012.0
20260905184440 35 46 6.4 12.9 0.00 0.00 0.00 33 1012.2
20260905183939 35 353 6.4 12.9 0.00 0.00 0.00 34 1012.4
20260905183433 36 115 8.0 11.3 0.00 0.00 0.00 33 1012.3
20260905182929 35 110 4.8 12.9 0.00 0.00 0.00 33 1012.5
20260905182428 35 270 0.0 3.2 0.00 0.00 0.00 34 1012.3
20260905181924 35 78 0.0 4.8 0.00 0.00 0.00 34 1012.6
20260905181418 35 90 1.6 4.8 0.00 0.00 0.00 34 1012.6
20260905180917 35 344 6.4 9.7 0.00 0.00 0.00 35 1012.7
20260905180413 34 35 6.4 9.7 0.00 0.00 0.00 36 1012.9
20260905175913 35 4 3.2 4.8 0.00 0.00 0.00 35 1013.0
20260905175412 35 42 9.7 9.7 0.00 0.00 0.00 35 1013.0
20260905174907 35 151 1.6 6.4 0.00 0.00 0.00 35 1013.0
20260905174403 33 346 0.0 11.3 0.00 0.00 0.00 37 1013.2
20260905173858 34 6 1.6 4.8 0.00 0.00 0.00 35 1013.2
20260905173355 33 339 8.0 11.3 0.00 0.00 0.00 37 1013.3
20260905172849 34 30 0.0 8.0 0.00 0.00 0.00 36 1013.1
20260905172347 34 104 8.0 9.7 0.00 0.00 0.00 36 1013.3
20260905171843 33 80 3.2 8.0 0.00 0.00 0.00 37 1013.2
20260905171340 33 90 3.2 4.8 0.00 0.00 0.00 37 1013.2
20260905170836 32 357 3.2 11.3 0.00 0.00 0.00 38 1013.5
20260905170332 32 11 8.0 11.3 0.00 0.00 0.00 38 1013.3
20260905165831 33 229 3.2 6.4 0.00 0.00 0.00 37 1013.5